Weather in Jan Thiel Baai

Curacao     12°06′34″N   68°56′03″W
temp.,
°C
wind,
m/s
gust,
m/s
humid.,
%
clouds,
%
prec.,
mm/h
press.,
hPa
HPBL,
m
5 december, sun
sun523:00+28e8107842 0.0 10131047
02:00+27e8107752 0.2 10121004
05:00+27e9107797 0.9 1012962
08:00+28e91177100 1.6 10141043
11:00+27e10117821 0.8 10151009
14:00+27ese1011785 1.0 10121053
17:00+28e9118070 0.1 10111021
20:00+27e101278100 0.1 10121002
6 december, mon
mon623:00+27e10128070 0.0 10141042
02:00+27e1012795 0.1 10131127
05:00+27e1012785 0.2 10131114
08:00+27e1012796 1.1 10151055
11:00+27e9118083 0.8 10161011
14:00+28e9107839 1.3 1012997
17:00+27e911795 0.0 10111006
20:00+27ene911795 0.1 10131015
7 december, tue
tue723:00+27e911795 0.0 1014997
02:00+27e911765 0.6 1012993
05:00+27e810765 0.3 10121038
08:00+27e9117414 0.6 10131064
11:00+28e810785 0.3 10141043
14:00+28e910781 1.3 1011962
17:00+28e910770 0.9 10101004
20:00+27e811721 0.9 1011997
8 december, wed
wed823:00+27e9117270 0.0 1012988
02:00+27e8107823 0.3 1011916
05:00+27e897783 1.4 1011944
08:00+27e8107626 2.9 10131037
11:00+27e787688 0.4 1013914
14:00+27e77765 0.9 1011826
17:00+27ene78774 0.4 1010873
20:00+27ene79805 0.4 1011818
9 december, thu
thu923:00+27e810797 0.3 1012912
02:00+27e78815 2.1 1011673
05:00+26e68816 1.8 1011736
08:00+27e687998 3.6 1013791
11:00+27e677737 0.6 1014817
14:00+27e67775 1.1 1011840
17:00+27ene67785 0.5 1011695
20:00+27ene69810 1.0 1012678